Weather History for KDAN - February, 2013

Change the Weather History Date:

Sunday, February 10, 2013

  Actual Average Record
Temperature  
Mean Temperature 38 °F 40 °F  
Max Temperature 53 °F 49 °F 72 °F (1954)
Min Temperature 22 °F 31 °F 6 °F (1979)
Degree Days  
Heating Degree Days 27 25  
Month to date heating degree days 260 257  
Since 1 July heating degree days 2365 2585  
Cooling Degree Days 0 0  
Month to date cooling degree days 0 0  
Year to date cooling degree days 2 0  
Moisture  
Dew Point 21 °F    
Average Humidity 53    
Maximum Humidity 81    
Minimum Humidity 24    
Precipitation  
Precipitation 0.04 in 0.10 in 0.75 in (1949)
Month to date precipitation 0.79 1.12  
Year to date precipitation 7.95 4.54  
Snow  
Snow 0.00 in - - ()
Month to date snowfall T  
Since 1 July snowfall 1.1  
Snow Depth 0.00 in    
Sea Level Pressure  
Sea Level Pressure 30.35 in    
Wind  
Wind Speed 2 mph (SE)    
Max Wind Speed 10 mph    
Max Gust Speed 16 mph    
Visibility 10 miles    
Events Rain    
T = Trace of Precipitation, MM = Missing Value Source: NWS Daily Summary

Daily Weather History Graph

Daily Weather History Graph

Search for Another Location

Airport or City:

Trip Planner

Search our weather history database for the weather conditions in past years. The results will help you decide how hot, cold, wet, or windy it might be!

Date:

Astronomy

Feb. 10, 2013 Rise Set
Actual Time 7:10 AM EST 5:53 PM EST
Civil Twilight 6:43 AM EST 6:19 PM EST
Nautical Twilight 6:13 AM EST 6:50 PM EST
Astronomical Twilight 5:43 AM EST 7:20 PM EST
Moon 7:01 AM EST (2/10) 6:39 PM EST (2/10)
Length of Visible Light 11h 35m
Length of Day
10h 42m
New Moon, 0% of the Moon is Illuminated
Feb 10
New Moon
Feb 17
First Quarter
Feb 25
Full
Mar 4
Last Quarter
Mar 11
New

Hourly Weather History & Observations

Time (EST) Temp. Windchill Dew Point Humidity Pressure Visibility Wind Dir Wind Speed Gust Speed Precip Events Conditions
12:53 AM 25.0 °F - 19.0 °F 78% 30.36 in 10.0 mi Calm Calm - N/A   Clear
1:53 AM 26.1 °F - 19.9 °F 78% 30.36 in 10.0 mi Calm Calm - N/A   Clear
2:53 AM 25.0 °F - 19.9 °F 81% 30.39 in 10.0 mi Calm Calm - N/A   Clear
3:53 AM 24.1 °F - 19.0 °F 81% 30.40 in 10.0 mi Calm Calm - N/A   Clear
4:53 AM 23.0 °F 18.4 °F 18.0 °F 81% 30.40 in 10.0 mi ENE 3.5 mph - N/A   Clear
5:53 AM 24.1 °F - 19.0 °F 81% 30.42 in 10.0 mi Calm Calm - N/A   Clear
6:53 AM 25.0 °F - 19.9 °F 81% 30.44 in 10.0 mi Calm Calm - N/A   Clear
7:53 AM 27.0 °F - 21.9 °F 81% 30.48 in 10.0 mi Calm Calm - N/A   Clear
8:53 AM 33.1 °F - 23.0 °F 66% 30.48 in 10.0 mi Calm Calm - N/A   Clear
9:53 AM 37.0 °F 31.6 °F 18.0 °F 46% 30.49 in 10.0 mi East 6.9 mph - N/A   Clear
10:53 AM 37.9 °F 35.5 °F 18.0 °F 45% 30.48 in 10.0 mi East 3.5 mph - N/A   Clear
11:53 AM 42.1 °F - 18.0 °F 38% 30.46 in 10.0 mi Calm Calm - N/A   Clear
12:53 PM 46.9 °F - 19.0 °F 33% 30.41 in 10.0 mi Variable 4.6 mph - N/A   Clear
1:53 PM 50.0 °F - 18.0 °F 28% 30.36 in 10.0 mi Variable 3.5 mph - N/A   Clear
2:53 PM 52.0 °F - 17.1 °F 25% 30.32 in 10.0 mi Variable 5.8 mph - N/A   Clear
3:53 PM 52.0 °F - 15.1 °F 23% 30.31 in 10.0 mi South 5.8 mph - N/A   Clear
4:53 PM 51.1 °F - 18.0 °F 27% 30.30 in 10.0 mi South 5.8 mph - N/A   Clear
5:53 PM 48.0 °F - 19.0 °F 32% 30.29 in 10.0 mi SE 4.6 mph - N/A   Clear
6:53 PM 46.9 °F - 19.9 °F 34% 30.30 in 10.0 mi SSE 3.5 mph - N/A   Partly Cloudy
7:53 PM 46.0 °F - 21.0 °F 37% 30.29 in 10.0 mi Calm Calm - N/A   Scattered Clouds
8:53 PM 46.9 °F - 19.9 °F 34% 30.29 in 10.0 mi Calm Calm - N/A   Mostly Cloudy
9:53 PM 46.9 °F - 23.0 °F 39% 30.26 in 10.0 mi SSE 3.5 mph - 0.00 in Rain Light Rain
10:53 PM 42.1 °F 39.2 °F 32.0 °F 67% 30.20 in 10.0 mi Variable 4.6 mph - 0.04 in Rain Light Rain
11:12 PM 42.8 °F - 33.8 °F 70% 30.22 in 10.0 mi Calm Calm - 0.00 in   Overcast
11:28 PM 42.8 °F 41.1 °F 33.8 °F 70% 30.21 in 10.0 mi SE 3.5 mph - 0.00 in   Overcast
11:53 PM 42.1 °F - 35.1 °F 76% 30.19 in 10.0 mi Calm Calm - 0.00 in   Overcast